sat.trackr.live / text

‹ back to catalog

STARLINK-35651

NORAD 66386 · 2025-257G

PAYLOAD ACTIVE UNKNOWN

§ Identity

Operator
Country
US
Launch date
2025-11-09
Launch site
AFETR
Launch vehicle
Mass (kg)
RCS (m²)

Purposes: comms

External: N2YO · Heavens-Above · Gunter

§ Orbital elements

Epoch: 2026-09-20T15:25:07.580640Z

Period
93.85 min
Inclination
53.1582°
Eccentricity
0.0001002
Mean motion
15.34398963 rev/d
Perigee alt
462.0 km
Apogee alt
463.4 km
Semi-major
6,840.8 km
B*
8.4112e-4
RAAN
29.2182°
Arg perigee
74.2344°
Mean anomaly
285.8769°
Rev number
4,961

§ Raw data

STARLINK-356511 66386U 25257G   26263.64244885  .00028148  00000+0  84112-3 0  99912 66386  53.1582  29.2182 0001002  74.2344 285.8769 15.34398963 49612

JSON: /api/v1/satellites/66386 · /tle

For live sub-satellite position, see the globe view (requires WebGL).

§ Visibility from observer

Set your observer location to see the next 7 days of passes ≥ 10°. The values pass through the URL so the page stays shareable.

No JS? Fill the form by hand. The geolocation button needs JavaScript.